STARLINK-31651, 59860

Orbit data source: Space-Track

STARLINK-31651, 59860 is a payload satellite owned by SpaceX/Seattle (US) in LEO that was launched on Fri, 24 May 2024 UTC via an FALCON 9 launch vehicle from the Air Force Eastern Test Range (AFETR). Payload-class satellites include a variety of spacecraft equipped with specific instruments for various scientific and technological missions. These include communications satellites like Starlink; space stations such as the ISS; scientific satellites like the Hubble; Earth observation satellites from companies like Planet Labs, Umbra, and HawkEye 360; GPS; miniature CubeSats for education and research; and military/defense satellites.

Loading next visibility...
Identifier
59860, 2024-098C
Orbit
LEO
Country
Flag of USUS
Related business
Manufacturer
SpaceX/Seattle
Mission
Operational Commercial Communications
Bus & Motor
STARLINK V2M, Unknown motor
Mass
730 kg wet, ~700 kg dry
Launch date (UTC)
2024-05-24 (2 years ago)
Launch vehicle
FALCON 9
Launch site
Air Force Eastern Test Range (AFETR)
Object type
Payload
Rocket body
Debris
Shape & HBR
Box + 2 Pan, 17.7 m
Radar Cross Section
33.884 m², Large (>1 m²)

Expand to show TLE details & history
Last TLE update: 2 days ago

TLE from 2 days ago
0 STARLINK-31651
1 59860U 24098C   26171.06754669 -.00001507  00000-0 -45247-4 0  9992
2 59860  43.0036  59.8146 0001262 280.5450  79.5259 15.27571424117503
Epoch: 2026-06-20T01:37Z
TLE epoch observation values (Epoch: 2026-06-20T01:37:16.034Z)
Latitude
-0.00003°
Longitude
127.21027°
Altitude
482.693 km
Speed
7.626 km/s
True Right ascension
03h 59m 15s
True Declination
0° 00' 00"
Sunlit
Object was in daylight at epoch
Visualization orbit readout
Latitude
Unknown
Longitude
Unknown
Altitude
Unknown
Speed
Unknown
Apparent Right ascension
Unknown
Apparent Declination
Unknown
Sunlit
N/A
Visualization observer readout
Local Sidereal Time
21:30:10
Azimuth
Unknown
Elevation
Unknown
Doppler factor
Unknown
Orbital elements
Apogee altitude
485.885 km
Perigee altitude
484.153 km
Semi-major axis
6,863.156 km
Eccentricity
0.00013
Inclination
43.0036°
RAAN
59.8146°
Arg. of periapsis
280.545°
True anomaly
79.54012°
Mean anomaly
79.5259°
Eccentric anomaly
79.53301°
Mean motion
3.81731 °/min
Orbital period
94.31 mins
BSTAR
-0.000045247
Loading maneuver chart data...
Computing Atmospheric mass density...
Loading historical data...
Loading historical data...
Loading historical data...
Loading historical data...
Loading historical data...
Loading historical data...
Loading historical data...

Documentation

Showing up to 5 results
|